Location: DARK SKY Beskydy - Park tmavé oblohy, www.darkskybeskydy.cz
(49.4926°N, 18.5016°E)
Time: 02:25:40
(UTC+02:00)

A-11 Canister half - Pass Details

Date: 26 February 2024
Orbit: 1513 x 1686 km, 47.2° (Epoch: 24 April)

Event Time Altitude Azimuth Distance (km) Brightness Sun altitude
Rises 07:16:27 0° 288° (WNW) 4,899 10.9 5.5°
Reaches altitude 10° 07:19:48 10° 283° (WNW) 3,890 10.5 6.0°
Maximum altitude 07:28:56 44° 215° (SW) 2,102 9.8 7.4°
Drops below altitude 10° 07:37:45 10° 148° (SSE) 3,750 12.2 8.7°
Sets 07:40:57 0° 142° (SE) 4,710 12.8 9.1°
